Find Starlink 35448

NORAD ID: 66465 Int'l Des: 2025-262 Owner: SPXS Country: US Constellation: starlink operational
LEOCIRCULAR

当前视图

正在加载3D地球...

About Starlink 35448

Starlink 35448 (NORAD 66465) is a starlink constellation satellite (v2 mini) launched Nov 15, 2025 by SPXS of US. It operates in LEO, CIRCULAR orbit with a mass of 575.00 kg.

关于 Starlink 35448

正在加载描述...

即将过境

Passes for default location (London). Set your location on the main map for personalized predictions.

高度历史

Loading altitude history...

两行轨道根数

1 66465U 25262K 26174.94106389 .00021371 00000-0 78325-3 0 9996
2 66465 43.0024 56.3369 0001275 277.9142 82.1565 15.27605875 35158
Epoch: Jun 23, 2026 • Age: 13 hours

当前状态

高度 486.7 km
速度 7.63 km/s
星下点 42.34°N, 70.72°E
发射日期 Nov 15, 2025
运行时间 0.6 years
类型 internet

技术详情

分类 Payload
质量 575.00 kg
干质量 530.00 kg
总质量 575.00 kg
长度 0.30 m
直径 4.10 m
跨度 29.00 m
形状 Box + pan
制造商 SPXS
平台类型 Starlink V2MO
阶段状态 In Orbit
所有者/国家 SPXS/US

Most Searched